Wind_Speed
11 11 10 11 10 10 12 13 13 13 14 15 15 15 16 16 17 18 20 21 22 24 26 27 28 29 29 30 30 30 30 30 30 30 30 30 30 30 30 30 30 31 32 32 33 34 34 34 34 35 35 34 34 33 32 32 31 31 30 30 30 30 31 32 33 34 36 36 36 34 34 33 32 31 30 30 31 31 30 29 26 26 27 27 28
9 9 10 10 10 10 12 13 13 13 14 15 16 15 15 15 16 18 20 22 23 25 26 28 29 30 30 30 31 31 32 32 32 31 32 32 32 33 33 33 33 33 33 33 34 34 35 35 35 35 35 35 34 34 33 33 33 33 33 32 32 31 31 33 34 35 36 38 39 38 37 36 35 34 33 32 32 31 31 30 29 28 28 29 29
9 9 9 10 11 11 12 13 13 13 14 16 18 18 17 16 16 17 20 23 24 25 26 28 29 30 31 31 32 33 33 34 34 34 34 34 34 35 35 35 35 35 34 34 34 35 35 35 36 36 36 36 36 35 34 34 34 34 34 34 33 32 32 33 35 35 36 38 40 42 42 40 38 37 36 36 35 34 33 33 32 31 30 31 30
11 10 10 10 11 11 13 15 13 13 14 16 19 20 20 19 17 17 20 23 26 26 26 27 29 30 31 33 34 34 35 36 36 36 37 37 37 37 37 37 37 36 36 36 35 35 35 35 36 36 37 37 37 36 36 35 35 35 35 35 35 34 33 33 34 36 36 37 39 41 44 45 44 43 42 40 39 38 37 36 35 33 33 32 32
13 12 11 12 13 13 15 17 16 16 16 18 21 22 21 21 19 18 20 24 27 27 26 28 30 31 32 33 35 35 36 37 38 38 39 39 39 40 40 40 39 39 38 37 36 36 35 35 35 36 37 37 38 38 37 36 36 36 36 36 36 36 35 34 34 35 36 37 39 40 42 45 47 48 48 46 44 42 41 39 37 35 35 35 34
13 13 13 14 13 14 16 17 16 16 17 19 23 24 21 20 19 18 21 25 28 28 27 28 31 32 32 33 35 36 36 37 38 39 40 41 41 42 42 43 43 42 41 40 39 38 37 36 35 35 35 36 37 38 38 37 37 37 37 37 38 38 37 36 35 35 35 36 38 39 41 43 45 46 48 49 48 47 45 43 40 38 38 38 37
13 13 13 14 13 14 16 16 15 16 18 20 23 24 22 19 16 17 23 28 30 29 28 29 31 32 32 33 35 36 37 38 38 40 41 42 43 44 46 47 47 47 46 45 44 42 40 39 37 36 35 35 35 37 38 38 38 38 38 38 38 39 39 39 38 37 37 37 38 38 39 41 43 44 46 47 48 49 49 48 45 42 41 41 40
14 13 13 14 14 15 16 16 17 19 20 22 24 24 24 21 18 20 25 31 32 31 30 30 32 33 34 35 36 37 39 39 40 41 43 44 44 46 47 49 51 51 50 49 48 47 45 43 42 40 38 37 36 36 37 38 39 39 39 39 39 39 40 41 41 41 40 40 40 40 40 40 41 43 44 46 47 49 50 51 50 47 45 44 43
15 15 14 15 16 16 17 18 19 21 22 24 24 24 24 23 22 24 28 31 33 33 33 33 34 36 37 37 38 39 40 41 41 42 45 47 47 49 50 51 53 53 53 52 51 51 50 48 46 44 41 40 38 37 37 38 39 39 40 40 40 40 40 41 43 43 43 43 43 43 42 42 41 41 43 44 46 48 49 51 53 52 49 47 46
17 17 16 16 17 18 18 18 20 23 23 24 25 25 25 25 25 28 30 32 35 35 36 36 36 38 39 40 40 41 42 44 43 41 44 48 49 51 53 54 55 56 56 55 53 53 53 52 49 47 45 43 40 39 38 38 39 39 40 41 41 41 41 41 43 44 44 45 45 45 44 44 43 42 42 43 45 47 49 50 53 55 55 52 49
18 19 19 18 18 19 20 20 22 24 25 26 27 27 27 27 29 30 32 34 36 38 38 38 38 40 41 42 43 44 45 47 46 42 44 48 51 53 55 56 57 58 58 57 56 56 57 55 52 49 47 45 43 41 40 39 39 39 40 41 41 42 41 42 43 44 45 45 45 45 45 45 45 44 43 42 43 45 48 49 51 54 58 58 54
20 21 21 20 20 22 24 24 24 25 27 28 29 30 30 31 31 32 34 36 38 39 40 41 41 42 44 46 47 47 48 49 49 46 45 48 51 55 58 59 59 60 61 61 61 61 60 58 56 53 50 48 45 44 43 42 41 40 40 41 42 42 42 42 43 43 44 45 44 44 44 44 44 45 44 43 43 43 46 49 51 52 57 61 60
22 23 25 23 22 23 26 27 26 26 28 31 31 32 33 34 34 34 35 37 38 40 42 44 45 45 47 50 50 51 51 51 53 52 49 47 49 55 60 62 62 63 64 65 65 64 63 61 59 57 54 51 49 46 45 43 42 41 41 42 42 43 43 44 44 44 44 44 44 44 44 44 44 44 44 44 44 44 45 47 50 52 55 59 62
25 24 26 28 27 26 28 29 28 28 31 34 34 34 35 37 37 37 37 38 39 42 44 46 48 49 50 52 53 54 54 54 56 56 53 49 47 53 61 64 65 65 66 68 67 66 64 63 62 61 59 55 52 49 47 45 43 42 41 42 42 43 44 45 45 45 45 46 45 45 45 44 44 44 44 44 44 45 45 46 49 52 54 57 61
26 27 28 30 30 30 30 30 30 32 34 36 37 37 38 39 39 38 38 39 41 43 46 48 50 51 52 53 55 56 56 56 58 59 56 51 47 52 61 64 67 68 68 70 69 67 66 65 65 65 62 59 55 52 49 47 45 43 42 41 41 42 43 44 45 46 47 47 47 47 47 46 45 45 45 45 45 45 46 47 48 50 53 56 59
27 29 29 31 32 33 33 33 33 35 37 38 38 38 39 40 41 40 38 40 43 45 48 50 52 52 53 55 56 57 57 57 59 59 55 49 47 53 61 64 67 70 71 72 71 69 68 68 69 68 66 62 57 54 51 49 47 45 43 42 42 42 43 43 45 46 47 48 48 49 49 48 48 47 47 47 47 47 47 47 49 50 52 55 58
29 31 32 32 33 35 35 35 36 38 39 39 40 40 41 42 42 41 40 43 47 48 49 52 55 54 54 56 57 58 58 58 59 57 52 49 50 55 61 64 67 71 73 73 73 71 69 70 72 71 69 65 60 56 53 50 48 46 44 43 43 43 43 44 45 46 47 48 49 50 51 50 50 49 49 49 49 49 49 48 49 50 52 55 58
33 33 34 34 35 36 37 37 38 39 40 41 42 43 43 43 42 42 43 47 49 49 51 55 57 56 56 57 57 57 59 60 59 56 52 51 54 58 62 64 67 72 74 74 74 71 70 73 75 74 71 67 63 60 56 52 49 46 44 43 43 44 44 44 45 46 47 49 50 51 52 52 52 51 51 52 52 51 51 50 50 51 52 55 58
34 35 36 36 37 38 38 39 39 40 41 42 44 44 44 44 44 45 47 48 49 50 53 56 58 58 58 58 58 59 60 61 60 55 51 50 54 59 63 65 68 72 73 75 75 70 69 75 76 75 73 70 68 66 61 56 50 46 44 43 42 43 44 45 46 47 48 50 51 53 54 54 54 54 53 54 54 53 52 52 52 52 53 55 58
35 36 37 38 39 39 39 40 40 41 42 43 45 45 46 46 47 48 50 50 51 53 55 57 57 58 59 58 59 61 62 63 62 54 48 48 53 59 64 67 69 71 73 76 74 68 69 76 78 77 76 74 72 70 65 58 52 48 46 44 42 42 43 44 46 48 49 51 53 54 55 56 56 56 56 56 56 55 54 54 53 54 55 56 57
37 38 39 40 41 41 41 42 42 43 43 44 46 47 47 48 49 50 51 52 54 55 58 58 57 59 59 57 60 63 63 65 62 53 45 46 52 57 64 69 70 72 76 78 75 70 71 78 81 81 81 78 74 72 66 59 54 51 49 46 44 42 42 43 44 47 49 51 53 55 56 57 58 59 59 59 58 57 56 56 55 56 57 57 59
39 39 41 42 42 43 44 44 44 45 45 46 47 48 49 50 51 52 53 54 56 57 59 58 57 60 58 55 61 65 65 67 61 50 45 47 53 59 64 70 72 75 78 79 79 77 76 80 84 85 84 82 76 71 65 58 54 52 49 46 44 42 42 43 44 46 48 50 52 55 56 57 58 59 61 61 60 59 58 58 58 57 57 58 60
42 42 43 44 45 46 46 45 46 47 48 48 48 50 51 51 52 53 54 56 58 60 62 60 60 60 55 56 64 67 68 67 58 48 45 49 57 61 64 70 75 77 78 79 80 78 75 79 85 87 87 85 79 72 64 58 56 54 50 47 45 43 42 43 44 46 48 50 51 53 55 57 57 58 60 61 60 60 60 60 60 59 58 59 60
46 45 46 47 47 48 48 47 48 49 49 50 51 51 52 53 53 54 56 59 61 63 64 62 59 54 52 59 68 69 69 64 52 46 47 52 61 64 64 70 77 79 79 79 79 77 75 78 83 88 90 89 83 76 67 61 60 58 54 51 49 47 45 44 45 46 47 49 51 53 54 55 56 57 59 60 60 60 61 61 61 60 59 59 60
46 47 48 49 49 50 50 49 49 50 51 52 53 53 54 54 54 55 57 60 62 65 66 61 54 51 56 65 70 70 65 56 47 46 49 56 65 66 66 71 78 82 81 80 83 83 80 80 82 89 93 91 87 80 71 66 63 60 57 55 54 52 49 47 46 47 47 48 50 53 54 55 56 57 58 60 60 61 61 61 61 61 60 59 60
47 47 48 49 50 51 51 51 51 51 51 53 54 54 55 55 55 56 58 61 63 66 66 59 53 57 63 67 68 64 55 47 45 48 53 62 68 67 68 73 79 84 85 84 87 89 85 80 82 90 94 92 89 82 74 68 64 59 56 55 55 53 51 49 48 48 49 50 52 55 58 59 59 60 60 61 61 60 60 61 60 60 59 59 59
50 49 48 48 50 51 51 51 52 52 52 53 54 55 55 55 55 56 58 61 63 65 65 60 59 64 66 65 66 61 50 45 48 52 58 66 69 69 73 77 81 86 88 87 90 92 88 81 83 91 96 95 91 83 74 68 62 56 55 55 54 53 52 51 51 51 52 53 55 58 60 61 61 61 61 62 62 60 59 59 59 58 58 58 57
51 51 50 49 49 51 52 53 53 53 53 53 53 54 56 55 56 58 59 60 62 65 66 63 63 64 62 65 67 59 50 48 51 56 62 67 70 72 76 81 84 87 89 89 91 95 91 83 84 92 97 97 93 84 75 67 59 55 55 56 55 54 54 54 54 56 56 57 57 59 61 61 60 60 61 61 60 59 58 58 57 56 56 56 56
53 53 53 51 50 51 52 54 55 54 54 54 54 54 55 56 58 59 59 59 61 64 64 61 60 59 60 66 67 58 51 51 55 61 67 71 74 76 82 87 89 89 90 91 93 97 94 86 86 92 98 99 94 85 76 65 57 55 58 59 58 57 56 56 57 59 60 60 60 61 62 61 60 60 60 59 58 57 57 57 56 54 53 53 54
54 54 55 54 52 52 53 54 57 57 56 55 54 54 56 57 58 56 57 59 60 59 59 58 57 59 63 66 63 54 50 53 60 67 73 78 81 85 90 93 91 90 91 92 95 98 95 88 87 93 99 99 93 84 74 62 56 58 61 61 61 59 57 58 58 60 63 63 63 64 63 62 61 60 59 58 56 55 54 53 53 52 50 49 51
54 54 55 55 54 54 55 55 57 59 58 57 56 56 57 55 53 53 55 58 58 56 55 56 60 64 64 57 51 50 53 59 66 72 78 83 87 89 91 90 88 90 92 94 97 99 96 90 89 94 100 99 91 81 71 63 61 65 66 65 63 61 60 60 61 62 63 63 62 62 62 62 62 60 58 56 54 53 52 51 50 50 49 47 49
57 54 54 55 56 57 56 55 57 59 59 58 58 58 56 51 50 54 57 58 58 58 57 58 60 58 54 51 53 59 64 68 71 75 81 85 86 86 86 86 87 89 91 95 99 100 97 92 91 96 101 99 91 81 73 69 69 70 69 67 66 64 63 64 65 64 63 61 59 60 59 59 59 58 56 53 51 49 49 48 47 47 47 47 47
60 57 55 54 56 58 58 57 56 58 59 59 59 59 58 54 55 60 59 53 52 55 56 55 51 47 49 56 62 67 70 74 75 78 83 86 85 84 85 86 88 90 92 98 101 101 97 93 92 98 101 98 92 83 76 74 73 72 71 70 69 68 68 68 68 67 64 61 60 60 58 57 56 54 51 49 46 45 46 46 45 44 44 45 46
61 60 58 55 55 58 59 58 57 57 59 60 60 60 61 59 59 60 55 48 50 56 54 48 45 50 56 59 64 69 74 77 79 82 87 88 85 85 86 89 90 91 94 100 103 101 98 94 95 100 102 98 92 85 79 77 75 74 74 74 74 74 73 73 71 69 67 65 64 62 59 56 53 50 47 44 42 42 43 43 42 41 41 43 45
62 61 60 57 56 57 58 58 57 57 58 60 61 64 65 62 58 54 49 47 52 54 47 42 47 57 62 64 69 73 76 79 82 87 89 88 86 87 90 92 92 92 96 103 105 102 99 96 98 103 103 99 93 86 81 78 77 76 77 77 78 78 78 77 75 73 70 68 65 63 59 56 52 47 43 40 40 40 40 40 39 39 39 41 43
62 62 61 59 58 58 58 58 56 56 58 60 62 67 67 63 59 55 51 51 51 45 41 44 49 55 61 66 69 72 77 83 87 88 88 86 86 89 93 95 93 94 100 105 106 103 99 99 102 105 104 99 93 87 82 80 79 79 80 80 80 80 79 78 76 73 70 67 64 62 59 55 51 46 40 36 37 38 37 36 36 35 36 38 40
63 63 63 61 60 59 58 57 55 55 55 55 58 61 62 61 60 55 52 54 52 46 47 50 52 56 62 67 70 75 83 86 87 88 88 87 88 91 95 95 94 97 103 107 106 103 101 102 105 106 103 98 92 86 82 81 81 82 82 82 81 81 80 77 74 71 68 65 62 59 56 53 50 44 38 33 34 35 34 33 33 32 33 34 36
67 65 64 63 62 60 59 56 53 48 44 46 53 57 58 58 56 50 48 51 52 53 58 62 66 71 74 76 80 84 86 85 87 89 89 88 91 95 95 95 96 102 107 108 106 104 103 105 107 106 102 96 90 86 83 82 83 84 84 83 81 80 78 75 71 68 65 62 59 55 53 50 47 42 35 31 32 32 31 29 29 29 30 31 32
70 68 66 64 63 62 59 57 53 45 38 40 48 53 53 52 49 46 46 47 48 53 61 68 75 79 82 83 85 85 83 84 88 88 88 90 94 96 95 95 100 106 109 108 106 106 106 107 108 106 102 96 90 86 84 84 84 83 82 81 79 76 73 71 69 66 63 60 55 52 50 47 44 39 33 29 29 30 28 26 25 25 26 27 28
70 69 67 65 65 64 62 60 58 52 45 45 51 55 54 51 49 49 49 50 53 58 61 66 71 74 77 80 82 82 83 87 88 87 89 94 96 95 95 98 104 109 109 107 106 107 108 109 109 106 102 96 91 88 86 85 84 82 81 79 76 72 69 68 67 64 62 57 52 49 47 44 41 37 30 26 26 27 25 23 22 21 22 23 25
69 70 68 67 67 66 64 63 61 57 52 50 54 60 63 63 64 64 63 66 70 70 70 71 73 74 77 82 84 86 89 88 85 86 92 96 95 95 97 102 107 108 107 106 106 108 109 109 108 104 100 95 92 91 89 86 84 83 81 78 74 70 67 66 65 62 59 55 50 46 44 41 38 34 28 24 24 24 23 21 19 18 19 20 22
67 68 68 67 67 67 66 65 64 62 60 58 58 62 66 68 71 73 74 76 77 74 73 76 79 82 87 89 89 90 90 86 85 91 97 95 94 97 101 105 108 107 106 106 107 109 109 107 104 100 96 93 92 91 90 88 87 86 83 79 74 70 66 64 62 59 56 52 47 44 41 38 35 31 26 22 23 24 22 20 17 16 16 18 19
67 67 68 69 68 66 64 65 65 65 65 64 63 64 67 70 73 75 76 78 79 78 79 84 88 91 92 91 90 91 89 87 90 97 97 94 96 101 104 106 107 107 107 108 109 110 108 104 100 96 93 91 91 92 93 92 91 88 84 79 74 69 65 62 59 57 53 49 45 42 38 34 32 29 24 21 23 24 22 19 16 15 15 15 16
71 70 70 69 67 65 63 64 67 68 67 66 66 67 69 72 75 77 78 80 82 84 87 90 91 91 91 91 91 91 89 91 96 98 97 97 100 103 105 106 105 105 107 109 110 109 104 99 95 93 91 91 92 95 96 95 93 88 82 78 73 68 63 58 55 53 50 47 43 40 35 31 30 27 22 21 25 24 21 18 16 14 13 12 12
75 73 71 69 68 67 67 68 69 69 68 69 71 72 72 73 75 78 81 83 85 87 88 87 86 86 88 89 89 89 91 95 99 99 98 100 103 105 107 106 104 104 106 108 107 104 99 95 93 92 91 92 95 98 98 96 91 86 81 77 72 65 59 55 52 49 47 44 41 38 33 29 28 26 22 23 27 25 21 18 15 12 12 11 10
76 75 74 72 71 70 70 70 71 71 73 75 75 73 73 74 76 79 80 82 83 85 84 81 79 80 82 84 87 91 96 99 99 99 100 103 105 107 107 105 104 105 106 105 102 99 95 93 92 92 93 96 99 99 97 93 87 83 79 75 69 62 56 52 49 46 44 42 39 36 31 28 27 25 22 25 29 26 22 18 14 12 12 11 8
79 79 78 76 75 73 72 71 71 72 75 75 74 73 72 73 74 76 77 78 80 82 82 79 78 80 83 87 92 97 99 99 99 101 103 106 107 106 105 104 105 105 104 101 98 95 92 91 91 94 98 100 101 99 94 89 85 81 78 72 65 58 54 50 46 43 41 39 36 33 29 27 26 25 23 28 31 28 24 19 16 14 13 10 8
82 82 80 77 75 72 70 69 69 70 71 71 71 71 70 69 70 72 73 75 78 82 83 82 82 84 88 93 96 98 99 100 102 104 106 107 105 104 103 103 104 103 101 98 94 91 90 91 94 99 102 102 99 96 91 87 84 80 75 69 62 56 52 48 44 40 38 36 34 31 27 26 25 24 25 31 32 29 25 21 18 16 13 10 8
80 79 77 75 72 71 71 71 71 72 72 72 71 69 68 71 75 77 78 79 81 83 83 82 84 88 93 95 97 98 99 101 104 106 106 104 101 100 101 101 101 99 95 92 90 91 94 98 101 103 103 100 97 94 90 87 83 78 72 66 60 54 50 46 42 38 36 34 32 29 26 24 24 24 27 33 34 31 27 23 21 18 15 12 11
77 76 76 76 76 76 76 76 76 76 77 76 75 72 72 74 76 75 75 77 78 79 81 85 89 93 95 96 96 97 99 102 104 103 100 98 97 97 98 97 95 91 88 88 91 96 101 104 105 104 101 99 96 93 88 85 80 75 69 64 58 52 47 43 40 37 34 32 30 27 25 24 24 24 30 36 36 32 29 27 23 20 17 15 14
78 79 79 79 79 78 77 76 76 76 76 76 74 72 71 73 74 74 76 79 82 85 90 94 96 95 95 95 96 99 102 103 100 95 92 93 94 94 93 91 89 88 89 92 97 102 106 107 105 104 102 99 95 90 86 81 76 70 65 61 56 50 45 41 38 36 33 31 28 26 24 24 24 26 33 39 39 35 32 30 26 22 19 17 17
Wind_Direction
16 17 15 16 19 24 27 26 24 23 24 24 23 22 19 16 14 13 12 11 11 10 9 8 6 5 4 1 359 358 357 357 355 353 351 349 345 341 336 330 324 317 311 305 301 298 294 292 289 287 285 283 282 281 281 281 280 279 277 274 270 265 261 257 253 249 245 242 242 242 243 244 246 248 249 249 249 249 250 250 246 240 237 235 233
356 360 359 0 360 0 7 10 12 14 14 14 12 10 8 7 8 10 10 9 7 7 6 4 3 2 1 359 358 356 356 356 355 354 353 352 350 348 346 341 336 330 324 316 310 304 299 295 292 289 286 284 283 281 279 278 277 276 274 272 271 268 264 261 259 255 250 246 243 242 241 241 243 247 248 248 247 246 246 245 241 237 234 232 231
347 341 336 343 349 350 353 353 356 4 6 4 4 3 0 357 0 8 12 10 7 5 3 1 360 358 357 356 356 355 355 355 354 353 353 352 351 350 349 347 343 339 333 327 320 313 307 301 296 292 289 286 283 280 277 275 274 272 271 270 268 267 265 262 261 259 256 252 248 245 242 240 240 243 246 247 246 244 242 240 239 236 232 229 228
350 337 328 329 330 334 345 346 340 339 343 349 353 357 359 356 351 355 2 3 1 0 360 359 357 356 354 353 353 353 353 353 353 353 353 352 352 351 350 348 346 343 339 334 329 322 316 308 302 295 291 287 284 281 279 276 273 271 270 269 267 266 264 262 261 261 260 258 255 251 248 244 242 242 244 245 246 244 241 239 239 237 233 230 226
355 345 340 337 331 331 339 344 340 330 327 329 334 340 350 356 351 345 347 349 348 349 352 355 356 354 353 351 351 351 351 351 352 353 353 353 352 351 350 349 347 345 342 339 335 331 325 318 310 302 296 291 287 284 281 278 275 273 272 271 269 267 264 262 261 261 261 259 258 257 255 252 249 247 245 244 244 244 242 240 240 239 235 231 226
358 354 350 344 338 337 340 342 341 337 329 326 327 329 333 345 356 356 353 350 347 343 344 348 351 351 351 349 348 348 349 350 351 352 352 353 352 351 350 349 348 346 344 342 340 336 332 326 319 310 302 295 290 285 282 279 276 274 272 271 270 269 267 263 260 260 261 260 259 258 257 257 256 254 251 247 243 241 242 241 239 238 236 232 227
351 351 351 350 342 335 337 339 339 339 337 336 336 334 328 328 342 352 352 351 350 346 341 340 343 345 347 347 346 345 346 347 349 351 351 351 351 351 350 349 348 347 345 344 343 341 338 334 328 321 313 304 295 289 284 280 277 275 273 271 269 269 268 266 263 261 260 261 261 260 259 257 257 256 255 252 247 242 240 240 239 237 235 234 230
339 339 340 347 345 336 332 332 334 336 339 343 344 342 336 325 319 325 336 343 345 345 341 339 339 341 344 345 345 344 344 344 344 346 349 349 350 350 350 349 348 347 346 344 344 343 341 338 334 329 323 316 306 297 288 283 279 276 274 272 269 268 267 266 264 262 260 259 259 260 260 259 258 257 255 254 252 247 241 238 238 238 236 234 233
330 330 329 334 338 336 331 327 329 332 335 341 343 344 344 338 328 325 331 337 341 342 340 339 340 341 342 343 343 343 343 342 340 341 345 347 348 349 349 349 349 348 346 344 343 343 342 339 336 332 327 322 315 306 295 287 281 277 274 271 269 267 266 265 264 262 260 259 258 257 258 258 258 257 256 255 254 251 246 239 236 237 238 235 233
324 322 321 325 329 330 329 326 327 330 333 338 340 340 342 342 338 335 334 335 338 339 339 338 339 340 341 341 341 341 340 341 339 339 343 345 346 347 348 348 349 348 347 344 343 342 342 340 336 333 329 324 319 312 303 293 285 279 274 271 269 267 265 264 263 261 260 259 258 257 256 255 255 254 254 255 254 253 251 245 237 235 237 237 234
320 318 315 318 321 323 325 326 326 328 329 333 335 335 336 338 337 336 334 334 336 337 337 338 337 337 339 339 339 339 339 340 340 339 341 345 346 347 347 348 348 348 347 344 342 340 340 339 337 333 329 325 321 315 308 300 292 284 277 273 270 268 266 264 262 260 259 258 257 257 255 254 253 252 251 252 252 252 252 250 244 236 234 236 235
316 318 315 316 316 314 317 321 323 325 325 326 329 330 329 331 333 334 333 333 334 335 336 337 336 335 336 338 338 338 338 339 339 336 335 339 344 347 347 347 347 346 345 344 341 339 338 338 337 334 330 326 321 316 311 305 299 291 283 277 273 270 268 266 263 260 258 257 255 255 254 253 252 252 251 251 251 251 250 250 249 243 236 235 235
313 315 315 316 316 313 313 314 317 323 323 321 324 326 325 324 326 328 330 331 332 334 334 335 336 336 336 337 337 337 337 337 336 334 329 327 335 343 346 346 345 344 344 342 340 339 338 337 337 335 332 327 323 318 312 307 302 295 288 282 276 273 270 268 266 263 260 258 256 254 254 253 252 251 251 251 251 251 250 249 248 247 242 237 234
310 313 313 313 314 314 314 313 312 317 321 320 321 323 323 322 322 324 326 328 330 333 333 334 334 335 336 335 335 335 335 335 335 332 326 319 322 334 341 343 343 342 342 341 339 338 337 336 336 335 332 329 324 319 314 309 303 297 291 284 278 273 270 268 266 264 262 260 258 256 255 254 254 253 252 252 252 251 251 250 248 246 245 241 236
307 309 310 310 312 314 315 315 313 314 316 318 319 321 322 322 321 321 323 325 328 331 332 332 332 333 334 333 333 333 333 334 335 332 326 318 316 325 334 339 340 340 340 340 338 337 337 336 335 334 332 329 325 320 316 310 305 299 293 287 280 275 270 266 264 262 260 259 258 257 256 255 254 255 255 254 253 252 251 250 250 248 245 242 239
303 305 306 308 310 311 313 315 315 314 315 315 317 320 322 322 321 320 320 322 325 328 329 330 330 331 332 331 331 331 331 333 335 333 329 323 318 322 329 334 336 338 338 338 337 336 336 336 335 334 332 330 325 321 317 312 307 301 296 291 284 277 272 267 264 261 259 257 256 255 255 255 255 255 255 255 254 253 252 250 250 250 247 244 241
304 303 305 306 307 309 311 313 314 315 315 315 317 320 322 322 322 320 319 319 321 322 324 327 328 329 329 329 330 330 331 332 334 333 330 328 324 324 328 330 332 335 336 336 336 335 335 336 336 335 334 331 327 323 318 313 308 303 298 292 286 280 275 270 266 263 260 257 255 255 255 255 255 255 255 256 256 255 254 252 250 250 249 246 243
304 304 305 305 306 306 308 311 313 313 314 315 316 319 322 322 321 320 320 318 318 318 320 322 325 326 326 327 328 329 330 332 332 330 328 328 326 326 327 327 329 332 333 334 334 334 336 338 339 338 336 333 330 326 320 314 309 303 298 292 287 282 276 272 268 265 262 259 257 256 256 256 256 256 256 256 257 257 257 256 255 253 250 248 245
301 302 303 303 304 306 308 309 310 311 312 313 314 317 320 321 320 320 320 319 316 317 319 319 321 323 323 324 327 328 329 330 329 326 325 327 326 326 326 327 328 330 331 332 333 333 336 340 340 339 337 334 332 328 323 316 310 305 299 293 288 283 278 274 270 267 264 262 260 259 259 259 259 258 258 257 257 257 258 258 258 257 254 250 247
297 299 300 302 303 304 306 307 308 309 309 310 312 314 317 319 319 319 319 318 316 316 317 317 318 320 321 322 324 325 326 328 326 322 321 324 325 325 327 327 327 329 331 332 333 332 335 340 341 339 337 335 332 330 326 319 313 308 303 297 291 286 281 277 273 270 267 265 264 263 262 262 263 262 261 260 259 259 259 259 259 259 257 254 250
295 297 299 300 301 302 304 305 306 307 308 309 310 312 315 317 317 317 317 316 315 315 316 316 316 318 318 319 322 323 324 325 323 319 317 319 320 323 327 328 328 329 331 333 334 333 333 338 341 340 338 335 333 331 327 322 316 310 305 300 295 290 285 280 276 272 270 268 267 266 265 265 265 265 265 264 263 262 262 261 260 260 259 256 253
292 294 296 297 298 299 301 303 304 306 307 308 310 312 314 315 315 316 315 315 315 315 315 315 314 314 314 316 320 322 322 323 321 315 311 313 317 320 325 328 329 330 332 334 334 333 332 336 339 339 337 335 332 330 327 323 318 312 306 302 298 294 289 284 280 276 273 270 269 269 268 267 267 267 267 267 267 266 265 264 263 261 260 257 255
289 291 293 294 295 296 298 300 303 304 306 308 309 310 311 313 315 314 314 315 315 314 314 313 312 311 310 314 319 320 319 320 317 309 306 310 316 318 321 326 329 329 332 334 334 333 332 334 336 337 335 333 331 328 326 324 322 317 311 307 303 298 293 288 284 281 277 275 273 272 271 271 270 270 269 269 269 268 267 266 265 264 261 258 255
289 290 291 292 293 294 296 299 301 303 305 306 307 308 310 312 313 314 314 315 315 314 313 314 313 311 309 313 317 316 316 317 312 307 305 308 314 316 316 321 326 328 329 332 333 332 329 330 333 334 334 332 330 327 324 322 321 318 314 310 307 302 297 292 288 284 282 280 279 277 276 275 274 273 273 272 271 271 270 269 268 266 263 259 255
286 289 291 292 292 294 296 298 299 301 302 304 306 308 310 312 313 314 314 314 314 314 313 314 314 311 311 314 315 315 315 314 310 306 304 308 313 315 313 316 322 326 327 329 331 331 329 328 331 333 333 332 330 327 323 319 317 316 312 309 307 304 300 296 293 290 288 286 285 285 283 282 280 279 278 276 275 274 273 271 269 267 264 260 255
283 285 288 290 292 294 296 297 298 299 301 303 305 307 310 311 313 314 314 314 315 314 312 312 312 311 313 315 315 315 314 311 310 308 307 310 313 313 312 314 318 323 325 326 329 331 329 327 328 331 332 331 329 327 323 320 317 315 312 309 307 305 302 300 298 296 295 293 292 290 289 287 286 284 282 281 279 277 275 273 270 267 265 260 255
284 284 286 288 291 293 294 295 297 298 300 302 304 307 309 311 312 313 313 314 316 314 312 311 311 313 316 317 317 317 315 313 312 311 310 312 312 310 311 313 316 321 323 324 327 330 328 325 326 331 332 331 329 327 324 321 318 315 313 311 308 306 305 304 303 301 299 296 294 292 291 289 288 287 285 284 282 279 277 274 271 267 264 260 255
283 285 286 288 290 293 294 295 296 298 300 302 304 306 308 310 311 312 312 314 315 313 311 310 312 314 316 317 317 315 314 313 312 310 310 310 309 308 310 312 314 317 320 322 326 328 327 323 324 329 332 330 328 326 324 321 317 315 315 313 310 308 308 307 305 303 301 298 297 295 293 292 290 289 288 286 284 282 279 275 272 268 264 259 254
284 285 286 288 290 293 295 296 296 298 300 301 303 306 307 309 311 311 312 313 313 310 308 309 313 314 314 315 312 308 308 309 309 309 309 308 307 306 308 310 311 313 316 321 325 327 325 322 323 327 330 330 328 326 323 319 316 316 316 314 311 310 309 308 307 306 305 303 302 300 297 296 294 292 289 287 285 282 279 276 272 268 263 258 253
283 286 288 289 290 291 293 295 297 298 299 301 303 305 308 311 311 310 310 312 311 309 308 309 311 311 311 310 305 300 302 305 306 308 308 307 306 305 305 307 309 310 314 319 323 325 324 322 322 326 328 329 327 326 323 320 317 317 317 313 311 311 310 310 310 310 308 307 305 303 301 300 297 295 292 290 288 284 280 275 271 267 263 256 251
281 284 287 290 291 292 293 295 297 298 300 302 304 306 310 312 310 306 305 306 305 305 305 306 308 309 308 303 297 294 298 300 301 303 305 306 306 306 306 307 308 309 313 318 321 323 323 321 321 324 327 327 327 325 322 319 317 317 315 313 312 312 312 312 312 312 310 308 306 304 303 302 299 297 295 293 289 285 280 275 270 266 262 256 249
281 282 285 288 290 291 293 295 296 298 300 302 305 308 310 308 302 299 300 299 298 301 301 303 307 306 299 293 289 290 293 295 296 299 303 306 307 306 306 306 307 308 312 317 320 321 322 320 320 323 325 326 325 323 320 317 315 315 314 312 312 313 314 315 314 313 310 308 308 306 305 303 300 299 296 293 288 283 279 274 268 264 261 255 249
282 283 283 285 288 290 292 294 295 297 300 303 305 307 306 303 301 301 300 297 297 300 299 300 303 296 284 282 285 287 289 291 293 297 303 307 307 306 305 305 306 307 311 315 318 320 320 318 319 322 324 325 324 322 319 316 315 314 314 313 314 315 316 316 316 315 312 312 312 310 308 305 302 300 296 292 286 281 277 272 267 263 259 255 249
281 282 283 284 286 288 290 292 294 296 300 303 305 303 301 303 305 304 300 298 302 304 299 291 286 278 273 276 282 285 287 289 292 298 304 306 305 305 304 305 306 307 310 314 317 319 319 317 318 321 323 323 323 321 319 317 315 315 315 315 316 317 317 317 318 317 315 315 315 313 311 308 305 301 296 291 285 280 275 271 266 261 256 252 248
282 283 284 284 284 285 287 290 293 297 301 303 303 301 301 303 305 302 297 296 302 306 297 280 271 270 271 275 280 282 285 289 294 300 303 304 303 303 304 305 305 306 309 313 316 318 318 317 318 320 322 323 322 320 318 317 315 315 315 316 317 317 318 318 318 317 316 316 316 314 312 309 306 302 296 290 285 280 275 270 265 259 254 250 246
284 284 285 285 285 286 288 291 295 298 301 302 302 302 301 300 300 296 290 288 292 291 278 265 263 266 271 276 278 281 287 292 296 299 302 303 302 303 303 304 304 305 309 312 315 317 317 317 318 320 321 322 321 318 317 316 315 315 315 316 316 316 316 316 316 315 315 315 315 313 311 309 306 301 296 291 286 280 275 270 264 258 252 248 245
283 284 285 286 287 288 289 292 296 299 302 305 306 304 300 300 301 298 289 284 282 274 265 262 264 268 274 278 280 284 289 292 295 299 301 302 302 302 303 303 303 305 309 313 315 316 316 317 318 319 320 320 319 317 316 316 316 315 315 315 315 315 315 314 314 313 313 314 313 311 309 307 304 300 295 291 285 280 274 269 263 256 251 247 244
282 282 284 286 287 288 289 291 292 297 305 309 306 301 297 300 304 300 289 282 276 268 266 268 270 274 277 279 281 284 288 291 295 299 300 301 302 302 303 302 303 306 310 313 314 315 316 317 317 318 319 319 318 317 316 316 316 315 315 314 315 315 315 314 313 312 313 313 312 310 307 304 301 298 294 289 284 278 272 265 258 254 250 247 245
283 283 284 285 286 286 287 287 286 288 294 294 290 287 288 293 298 292 283 280 276 270 268 268 270 273 275 276 279 282 286 292 296 298 298 299 301 301 301 301 303 307 311 313 314 315 316 316 317 317 318 318 317 317 316 316 316 316 315 315 315 315 315 314 312 311 312 312 310 308 304 301 298 295 291 286 281 274 266 258 253 252 251 249 247
283 284 285 285 284 284 285 285 284 283 282 278 275 275 276 277 280 277 274 274 276 276 274 271 271 272 273 275 278 281 287 292 295 296 297 298 300 300 300 302 305 309 311 312 313 314 315 316 316 317 317 317 316 316 316 316 317 317 317 316 316 315 315 313 312 311 310 310 308 305 302 298 295 292 288 282 275 266 258 251 247 249 251 250 248
281 283 283 283 283 284 284 285 284 283 280 275 272 272 270 270 273 275 274 274 277 278 277 274 273 274 276 280 282 283 287 291 293 295 298 299 299 299 300 303 307 309 310 311 312 314 315 315 315 315 315 315 315 316 317 318 318 318 318 317 315 315 314 312 311 309 308 307 305 303 299 295 293 290 285 277 266 256 248 244 243 244 247 249 249
280 281 281 281 282 284 285 284 283 283 280 275 270 268 268 270 272 275 275 276 277 277 276 276 277 280 283 284 283 284 287 289 292 297 299 298 298 299 302 305 308 309 309 310 311 313 313 314 314 314 314 314 315 316 317 318 319 318 317 316 315 314 313 311 310 308 306 305 303 300 296 293 290 286 281 269 255 244 239 237 234 235 240 245 246
278 278 280 281 283 284 284 283 283 282 281 278 275 272 271 272 274 275 275 275 275 275 275 277 280 282 283 282 282 283 286 288 293 298 299 297 298 301 303 306 308 308 309 310 311 312 313 313 313 312 313 314 315 316 317 318 318 317 316 315 314 313 311 309 308 306 304 303 301 297 293 290 285 282 275 258 243 236 232 226 221 226 236 244 246
278 278 280 281 283 283 283 283 284 283 281 280 279 278 277 277 277 277 277 277 277 277 276 277 279 280 279 279 280 282 285 289 294 298 298 298 300 302 304 306 307 307 309 310 311 312 312 312 312 312 312 313 315 316 317 317 316 316 315 314 313 312 310 308 307 305 303 301 299 294 290 285 279 275 265 244 233 229 222 214 214 223 233 241 246
277 278 278 279 280 282 282 283 283 282 281 281 282 283 282 281 281 281 281 280 279 277 277 278 278 278 278 278 280 282 287 292 296 298 298 299 300 302 304 305 306 307 308 309 310 310 310 310 311 311 311 313 314 315 316 316 315 315 314 313 312 311 309 307 306 304 301 299 296 292 286 280 273 267 253 231 224 220 212 205 208 218 228 235 242
275 276 277 277 278 279 280 281 281 280 281 283 285 285 284 282 282 282 281 279 277 275 275 277 278 277 277 279 282 286 291 294 297 297 297 298 300 302 304 306 307 308 308 308 308 308 309 310 310 310 311 312 313 314 315 315 314 313 313 312 312 311 309 307 305 303 300 297 293 288 283 276 268 260 241 221 215 212 204 198 201 212 223 231 237
275 276 277 277 278 278 278 279 279 279 281 283 284 285 284 282 281 280 278 276 273 273 274 276 277 277 279 283 287 290 293 295 296 296 298 300 302 304 306 306 307 307 307 306 307 307 308 309 310 310 311 312 313 313 314 314 313 312 312 312 311 310 309 307 304 302 298 295 290 285 280 271 262 252 232 215 209 205 198 194 198 208 217 223 227
276 276 277 278 278 278 278 278 278 279 281 283 284 284 283 279 277 275 274 273 273 274 276 278 279 281 285 288 291 293 294 296 297 299 301 303 304 305 306 306 305 305 304 304 305 306 307 308 308 309 311 312 313 313 313 313 312 312 311 310 310 310 308 306 303 300 296 293 288 282 276 266 257 245 224 210 205 200 194 193 198 205 211 214 217
277 277 278 278 278 279 279 280 280 280 281 281 282 282 281 278 275 273 271 272 274 277 278 280 283 286 289 291 292 294 295 297 300 301 302 303 303 304 303 303 302 302 302 303 305 306 307 308 309 310 311 312 313 313 312 312 311 311 310 309 308 309 307 305 301 297 294 290 285 280 272 260 251 237 217 206 201 196 193 194 199 204 208 209 212
276 277 278 279 279 280 280 281 281 281 281 280 280 279 278 276 274 272 271 272 274 276 278 281 285 288 290 291 293 294 296 298 299 300 300 300 300 301 301 301 301 302 303 304 305 306 308 308 309 310 311 312 312 313 312 311 310 310 308 307 307 307 305 302 298 295 292 287 282 276 267 254 244 230 212 203 198 195 193 195 197 202 205 206 210
277 278 279 280 281 281 281 281 282 281 281 281 280 279 276 272 271 271 273 275 276 278 281 285 287 289 290 291 292 293 295 296 296 296 297 298 299 299 300 301 302 302 303 304 306 307 308 309 310 310 311 312 312 312 311 310 309 308 306 305 304 304 303 299 294 291 289 284 278 272 261 248 238 225 209 200 196 194 194 194 195 199 204 206 210
Height
10995 10994 10994 10994 10993 10992 10992 10991 10991 10990 10989 10988 10987 10986 10985 10984 10984 10983 10981 10980 10978 10976 10975 10973 10971 10970 10968 10966 10963 10962 10960 10958 10956 10954 10952 10950 10947 10945 10942 10940 10937 10935 10932 10930 10928 10926 10925 10924 10922 10921 10920 10919 10918 10917 10916 10915 10914 10914 10914 10913 10913 10913 10913 10912 10912 10912 10912 10912 10912 10913 10913 10913 10913 10914 10914 10914 10914 10914 10914 10915 10915 10915 10914 10915 10917
10994 10994 10994 10993 10993 10992 10991 10991 10990 10990 10989 10988 10987 10986 10985 10984 10983 10981 10980 10978 10977 10975 10973 10972 10970 10969 10967 10965 10963 10961 10959 10957 10955 10953 10950 10948 10946 10943 10940 10938 10935 10932 10930 10927 10925 10923 10921 10919 10918 10916 10915 10914 10913 10913 10912 10911 10910 10909 10909 10908 10908 10908 10909 10908 10907 10907 10907 10907 10908 10908 10909 10909 10909 10909 10909 10910 10910 10910 10910 10910 10911 10911 10911 10912 10913
10994 10994 10993 10993 10992 10992 10991 10990 10990 10989 10989 10988 10987 10986 10984 10983 10982 10980 10979 10977 10975 10974 10972 10970 10969 10967 10966 10964 10962 10960 10957 10955 10953 10951 10949 10946 10944 10941 10938 10936 10933 10930 10928 10925 10922 10920 10917 10915 10914 10912 10911 10909 10909 10908 10907 10906 10905 10904 10904 10903 10903 10903 10904 10903 10902 10902 10902 10902 10902 10903 10903 10904 10905 10905 10904 10905 10906 10906 10906 10906 10906 10907 10907 10908 10910
10994 10993 10993 10992 10992 10991 10990 10990 10989 10988 10987 10987 10986 10985 10983 10982 10981 10979 10978 10976 10975 10973 10971 10970 10968 10966 10964 10962 10960 10958 10955 10953 10950 10948 10946 10943 10941 10938 10936 10934 10931 10929 10926 10923 10920 10917 10915 10912 10910 10908 10906 10905 10903 10903 10902 10901 10900 10899 10898 10898 10897 10897 10898 10898 10897 10896 10896 10897 10896 10897 10897 10898 10899 10899 10899 10900 10901 10901 10901 10901 10902 10903 10904 10905 10907
10994 10993 10992 10991 10991 10990 10989 10989 10988 10987 10986 10985 10985 10984 10982 10981 10980 10979 10978 10977 10975 10973 10971 10969 10967 10964 10962 10960 10958 10956 10954 10951 10948 10945 10943 10940 10938 10936 10934 10931 10929 10927 10924 10921 10918 10915 10912 10909 10906 10904 10902 10900 10899 10897 10896 10895 10894 10893 10893 10892 10891 10891 10892 10893 10892 10891 10890 10891 10890 10890 10891 10891 10892 10893 10894 10895 10896 10896 10897 10898 10898 10899 10900 10901 10902
10994 10993 10992 10991 10990 10989 10989 10988 10987 10986 10985 10984 10983 10982 10981 10980 10979 10978 10977 10976 10974 10972 10970 10968 10965 10963 10961 10959 10957 10955 10953 10950 10947 10944 10941 10939 10936 10934 10931 10929 10926 10924 10921 10918 10915 10912 10910 10907 10904 10901 10898 10896 10894 10892 10891 10890 10889 10888 10887 10886 10885 10885 10885 10886 10887 10886 10885 10885 10884 10884 10884 10884 10885 10886 10887 10888 10890 10891 10892 10893 10894 10894 10895 10896 10896
10993 10992 10991 10990 10989 10989 10988 10987 10986 10985 10984 10983 10982 10981 10980 10979 10978 10976 10975 10974 10972 10971 10969 10967 10964 10962 10960 10958 10956 10953 10951 10948 10946 10943 10940 10937 10934 10931 10928 10925 10922 10919 10916 10914 10911 10908 10905 10903 10900 10897 10895 10893 10890 10888 10886 10885 10883 10882 10881 10880 10879 10879 10878 10879 10880 10880 10880 10879 10878 10878 10878 10878 10878 10879 10879 10880 10882 10884 10886 10888 10889 10889 10890 10890 10891
10993 10992 10991 10990 10989 10988 10987 10986 10985 10984 10983 10982 10980 10979 10978 10977 10976 10974 10973 10972 10970 10969 10967 10965 10963 10961 10958 10955 10953 10951 10948 10946 10943 10941 10938 10935 10932 10929 10925 10921 10918 10915 10912 10909 10906 10903 10900 10897 10894 10892 10890 10888 10886 10884 10881 10879 10878 10876 10875 10874 10873 10872 10872 10872 10872 10873 10873 10873 10872 10872 10872 10872 10872 10873 10873 10873 10874 10875 10878 10881 10882 10883 10884 10884 10885
10991 10990 10989 10988 10987 10986 10985 10984 10983 10983 10981 10980 10978 10977 10976 10975 10974 10972 10971 10969 10968 10966 10965 10963 10960 10958 10955 10953 10951 10948 10946 10944 10941 10938 10935 10931 10928 10925 10922 10918 10915 10911 10908 10905 10901 10898 10895 10892 10889 10886 10884 10882 10881 10879 10876 10874 10872 10871 10869 10868 10867 10866 10866 10865 10865 10865 10865 10866 10866 10866 10866 10866 10866 10866 10866 10866 10867 10867 10868 10872 10875 10877 10877 10878 10880
10989 10988 10987 10987 10985 10984 10984 10983 10982 10980 10979 10978 10976 10976 10974 10973 10971 10969 10967 10965 10964 10962 10961 10959 10957 10955 10953 10950 10948 10946 10944 10941 10938 10935 10932 10928 10924 10920 10917 10914 10911 10908 10904 10901 10898 10895 10892 10888 10885 10881 10879 10877 10875 10873 10871 10869 10867 10865 10864 10862 10861 10860 10859 10859 10858 10857 10857 10858 10858 10858 10859 10859 10860 10860 10860 10860 10860 10860 10860 10862 10866 10870 10870 10871 10873
10987 10986 10985 10985 10984 10983 10982 10981 10980 10978 10976 10975 10974 10973 10972 10970 10968 10966 10964 10962 10960 10958 10957 10955 10954 10952 10950 10948 10945 10942 10939 10937 10934 10931 10927 10924 10920 10917 10913 10910 10907 10904 10901 10898 10895 10892 10888 10885 10881 10877 10874 10871 10869 10867 10865 10863 10861 10860 10858 10856 10855 10854 10853 10852 10851 10850 10850 10850 10850 10850 10851 10852 10853 10853 10853 10853 10854 10854 10853 10854 10857 10861 10862 10863 10865
10985 10983 10982 10982 10982 10980 10979 10978 10978 10976 10974 10972 10972 10970 10969 10967 10966 10964 10961 10959 10956 10954 10952 10951 10949 10948 10946 10943 10940 10937 10935 10932 10929 10926 10923 10919 10916 10912 10909 10907 10904 10901 10897 10894 10891 10888 10884 10880 10876 10873 10869 10866 10863 10860 10858 10856 10854 10852 10851 10850 10848 10847 10846 10845 10844 10843 10842 10842 10843 10843 10843 10844 10844 10844 10845 10846 10846 10847 10847 10847 10848 10851 10853 10854 10858
10982 10981 10978 10979 10979 10978 10977 10976 10975 10974 10971 10970 10969 10968 10966 10964 10963 10961 10959 10956 10953 10950 10948 10946 10944 10943 10940 10938 10935 10932 10930 10927 10924 10921 10918 10915 10911 10908 10905 10903 10900 10897 10893 10890 10887 10883 10879 10874 10870 10867 10863 10860 10857 10854 10851 10849 10847 10845 10844 10842 10841 10840 10839 10837 10836 10836 10835 10834 10834 10835 10835 10835 10836 10836 10837 10837 10838 10839 10839 10839 10840 10841 10844 10846 10850
10979 10978 10976 10975 10976 10976 10975 10973 10972 10971 10969 10967 10966 10965 10963 10961 10959 10957 10955 10952 10949 10946 10944 10941 10939 10937 10934 10932 10930 10927 10925 10923 10920 10917 10913 10910 10907 10903 10901 10898 10896 10893 10889 10886 10882 10878 10874 10870 10865 10861 10857 10854 10850 10847 10844 10842 10840 10838 10837 10835 10834 10833 10832 10830 10829 10828 10827 10827 10826 10826 10826 10827 10827 10828 10828 10829 10830 10830 10830 10831 10831 10832 10834 10836 10840
10976 10975 10974 10972 10971 10972 10971 10970 10969 10968 10966 10963 10962 10961 10959 10957 10955 10953 10951 10948 10945 10942 10939 10937 10935 10932 10929 10927 10924 10922 10920 10918 10915 10912 10907 10904 10901 10899 10897 10894 10892 10888 10885 10881 10878 10874 10870 10865 10860 10856 10852 10848 10844 10840 10837 10834 10832 10830 10828 10827 10826 10825 10824 10823 10822 10821 10820 10819 10818 10817 10817 10818 10818 10819 10819 10820 10820 10821 10822 10823 10823 10824 10825 10826 10829
10975 10973 10972 10970 10969 10967 10967 10966 10964 10963 10962 10960 10958 10957 10956 10953 10951 10949 10947 10944 10941 10938 10935 10933 10930 10928 10925 10922 10920 10917 10915 10913 10910 10906 10902 10899 10898 10895 10892 10889 10886 10883 10880 10876 10873 10869 10864 10860 10855 10850 10845 10841 10837 10833 10830 10827 10824 10821 10820 10819 10817 10817 10816 10815 10814 10813 10812 10811 10810 10809 10809 10809 10809 10810 10810 10811 10811 10812 10812 10813 10814 10815 10816 10817 10819
10971 10970 10969 10967 10966 10964 10963 10962 10960 10958 10956 10955 10954 10953 10951 10949 10947 10945 10943 10940 10937 10934 10932 10929 10926 10923 10921 10918 10916 10913 10910 10908 10905 10901 10898 10895 10892 10889 10886 10883 10881 10878 10875 10871 10867 10863 10858 10853 10848 10843 10838 10833 10829 10826 10822 10819 10816 10814 10812 10810 10808 10807 10806 10806 10805 10804 10803 10803 10802 10801 10800 10800 10800 10801 10801 10802 10802 10802 10802 10803 10805 10806 10808 10808 10809
10966 10965 10964 10963 10962 10961 10959 10958 10956 10954 10952 10950 10948 10948 10947 10946 10943 10941 10939 10936 10933 10931 10929 10925 10922 10919 10916 10914 10912 10909 10906 10903 10901 10897 10893 10889 10886 10883 10881 10878 10876 10873 10870 10866 10861 10856 10852 10846 10841 10836 10831 10826 10822 10818 10815 10811 10809 10806 10804 10802 10800 10798 10797 10797 10797 10796 10795 10794 10794 10793 10792 10792 10792 10792 10792 10792 10792 10792 10792 10793 10795 10797 10799 10799 10800
10963 10961 10960 10959 10958 10957 10956 10954 10952 10950 10949 10947 10945 10944 10944 10942 10940 10937 10934 10932 10929 10927 10925 10922 10918 10915 10912 10909 10907 10905 10902 10899 10897 10893 10889 10885 10882 10878 10875 10874 10872 10870 10866 10861 10856 10851 10846 10841 10835 10830 10825 10820 10816 10812 10807 10803 10800 10798 10796 10794 10792 10790 10789 10788 10788 10787 10786 10785 10784 10784 10783 10783 10782 10782 10782 10782 10782 10782 10782 10783 10784 10786 10788 10790 10791
10960 10959 10957 10955 10953 10953 10952 10951 10950 10948 10946 10944 10942 10941 10940 10939 10937 10934 10931 10928 10925 10923 10921 10918 10915 10910 10907 10905 10902 10900 10897 10895 10892 10889 10884 10881 10877 10874 10871 10868 10867 10864 10861 10857 10852 10846 10841 10835 10830 10825 10820 10815 10810 10805 10800 10795 10791 10789 10787 10785 10784 10783 10781 10780 10780 10778 10777 10776 10775 10774 10774 10773 10772 10771 10771 10771 10771 10771 10771 10772 10774 10774 10776 10779 10781
10956 10955 10953 10951 10949 10948 10947 10946 10946 10945 10943 10941 10939 10938 10937 10936 10933 10931 10928 10925 10922 10919 10917 10914 10911 10906 10902 10900 10897 10895 10892 10890 10887 10883 10879 10876 10874 10870 10866 10862 10859 10856 10852 10848 10843 10838 10833 10828 10822 10818 10813 10808 10803 10798 10793 10789 10785 10782 10779 10778 10776 10775 10774 10773 10772 10770 10769 10767 10766 10765 10764 10764 10763 10762 10760 10760 10759 10760 10760 10761 10762 10763 10764 10767 10769
10953 10952 10949 10947 10945 10944 10943 10943 10941 10941 10940 10938 10936 10935 10934 10932 10930 10927 10924 10921 10918 10915 10912 10910 10907 10902 10898 10896 10892 10889 10886 10884 10881 10877 10874 10871 10869 10866 10861 10856 10853 10849 10843 10838 10832 10827 10822 10817 10813 10810 10807 10803 10798 10793 10789 10785 10781 10776 10773 10771 10769 10768 10767 10765 10764 10762 10761 10760 10758 10756 10755 10754 10754 10753 10751 10749 10749 10748 10749 10749 10750 10752 10753 10755 10757
10948 10948 10946 10944 10942 10940 10940 10940 10938 10936 10935 10934 10933 10932 10931 10930 10927 10923 10920 10917 10913 10909 10906 10905 10902 10897 10892 10890 10887 10883 10881 10878 10875 10871 10867 10864 10862 10859 10855 10851 10847 10843 10838 10832 10826 10821 10816 10811 10808 10805 10802 10798 10793 10788 10784 10780 10776 10771 10767 10765 10763 10762 10760 10758 10756 10754 10752 10751 10750 10748 10747 10746 10745 10743 10741 10739 10738 10737 10737 10737 10737 10739 10741 10742 10744
10942 10942 10941 10939 10939 10937 10935 10936 10935 10933 10931 10930 10930 10929 10927 10926 10923 10919 10916 10911 10907 10903 10900 10899 10897 10891 10887 10884 10880 10877 10874 10870 10867 10863 10860 10857 10855 10853 10850 10846 10842 10838 10834 10829 10825 10821 10816 10810 10805 10800 10795 10791 10786 10781 10776 10774 10770 10765 10762 10759 10757 10755 10754 10751 10749 10747 10745 10743 10742 10740 10738 10737 10735 10733 10732 10730 10728 10726 10725 10725 10725 10726 10728 10729 10730
10940 10937 10935 10934 10933 10932 10931 10931 10931 10930 10928 10927 10926 10925 10923 10921 10918 10915 10911 10907 10901 10896 10892 10892 10891 10887 10882 10878 10873 10870 10866 10862 10859 10857 10854 10852 10849 10847 10844 10841 10837 10834 10830 10826 10821 10816 10811 10805 10799 10795 10789 10784 10779 10774 10769 10766 10763 10759 10755 10752 10749 10747 10745 10744 10742 10740 10738 10737 10734 10731 10728 10726 10724 10722 10720 10718 10716 10714 10713 10712 10712 10712 10713 10714 10715
10937 10936 10933 10930 10928 10927 10926 10926 10926 10926 10925 10923 10921 10920 10918 10916 10913 10910 10906 10901 10896 10889 10884 10884 10884 10880 10876 10872 10866 10861 10858 10855 10853 10852 10850 10847 10844 10841 10838 10835 10831 10827 10823 10818 10813 10808 10803 10798 10794 10790 10785 10779 10773 10768 10762 10757 10754 10751 10747 10744 10741 10739 10737 10736 10735 10733 10731 10729 10726 10722 10718 10714 10712 10710 10708 10705 10703 10702 10701 10699 10698 10699 10699 10699 10701
10930 10930 10931 10929 10926 10924 10923 10922 10921 10921 10921 10919 10917 10915 10914 10911 10909 10906 10900 10894 10890 10883 10877 10875 10875 10871 10867 10863 10858 10853 10850 10848 10847 10846 10844 10841 10838 10834 10831 10828 10823 10819 10816 10812 10807 10802 10797 10793 10788 10783 10778 10772 10766 10761 10756 10750 10745 10742 10740 10737 10734 10731 10729 10728 10727 10725 10723 10720 10716 10712 10707 10703 10700 10697 10695 10692 10689 10689 10687 10685 10685 10685 10685 10686 10687
10924 10923 10924 10925 10923 10920 10918 10917 10916 10916 10916 10915 10914 10911 10909 10906 10903 10900 10895 10889 10884 10877 10870 10868 10866 10862 10858 10854 10850 10846 10844 10842 10841 10840 10837 10834 10830 10826 10823 10821 10817 10814 10811 10807 10802 10797 10791 10787 10781 10775 10770 10764 10758 10753 10749 10744 10739 10735 10733 10730 10727 10724 10722 10720 10718 10715 10712 10709 10706 10701 10696 10692 10689 10686 10682 10679 10676 10675 10673 10671 10671 10672 10672 10672 10674
10917 10916 10917 10919 10919 10916 10913 10910 10909 10910 10910 10910 10910 10908 10904 10901 10897 10892 10888 10884 10878 10871 10865 10862 10859 10855 10850 10847 10844 10841 10837 10836 10835 10833 10831 10828 10824 10821 10817 10814 10811 10808 10805 10801 10795 10789 10784 10779 10774 10768 10764 10758 10751 10744 10740 10736 10733 10729 10726 10722 10719 10717 10715 10713 10709 10705 10700 10696 10692 10688 10683 10680 10678 10674 10670 10667 10665 10662 10660 10657 10657 10658 10659 10660 10661
10912 10911 10909 10911 10912 10911 10908 10906 10903 10902 10903 10904 10904 10902 10899 10895 10890 10885 10880 10876 10871 10865 10859 10856 10854 10850 10846 10843 10839 10836 10833 10831 10829 10828 10826 10823 10820 10817 10812 10809 10805 10801 10798 10793 10787 10782 10778 10772 10767 10762 10757 10752 10744 10737 10732 10729 10727 10724 10720 10715 10711 10710 10708 10705 10701 10696 10690 10685 10680 10675 10671 10667 10664 10660 10657 10654 10652 10650 10647 10646 10644 10644 10646 10648 10650
10908 10908 10905 10904 10904 10903 10902 10901 10896 10893 10894 10895 10895 10894 10892 10891 10887 10881 10874 10868 10864 10859 10854 10852 10850 10845 10840 10837 10834 10831 10830 10827 10826 10824 10822 10819 10816 10812 10808 10804 10800 10795 10791 10786 10781 10776 10771 10765 10760 10754 10749 10744 10738 10731 10726 10723 10720 10717 10713 10708 10704 10702 10699 10696 10692 10688 10682 10676 10670 10665 10660 10655 10650 10648 10645 10642 10640 10637 10635 10634 10633 10633 10633 10636 10639
10900 10904 10903 10900 10898 10896 10896 10895 10892 10888 10886 10887 10887 10886 10887 10888 10885 10877 10869 10863 10857 10852 10848 10848 10846 10840 10834 10830 10827 10826 10824 10823 10822 10820 10817 10814 10811 10807 10803 10799 10794 10790 10785 10779 10774 10769 10764 10758 10753 10748 10742 10736 10731 10726 10721 10716 10713 10709 10705 10701 10696 10693 10690 10686 10682 10677 10672 10667 10661 10655 10651 10646 10641 10638 10635 10632 10629 10627 10624 10623 10623 10623 10623 10625 10627
10891 10895 10897 10897 10894 10889 10888 10889 10888 10885 10882 10881 10881 10879 10878 10878 10876 10871 10865 10859 10853 10849 10845 10845 10844 10839 10830 10823 10820 10819 10818 10816 10815 10813 10810 10807 10803 10799 10796 10792 10788 10784 10778 10772 10767 10763 10758 10751 10746 10741 10734 10728 10723 10719 10714 10710 10705 10702 10697 10692 10688 10684 10680 10676 10671 10666 10661 10655 10650 10645 10641 10636 10632 10629 10625 10622 10620 10617 10614 10613 10613 10614 10614 10615 10617
10884 10886 10889 10892 10890 10885 10881 10882 10882 10882 10880 10878 10875 10871 10868 10869 10869 10865 10860 10855 10850 10846 10844 10844 10841 10832 10823 10818 10815 10812 10810 10808 10807 10804 10801 10798 10795 10791 10787 10783 10780 10776 10770 10765 10761 10756 10751 10744 10738 10733 10727 10721 10715 10711 10707 10702 10697 10693 10688 10683 10678 10673 10669 10665 10660 10655 10649 10644 10639 10634 10630 10626 10623 10620 10616 10613 10610 10608 10606 10605 10605 10606 10606 10607 10608
10877 10878 10879 10882 10883 10880 10877 10878 10879 10879 10877 10872 10867 10861 10859 10863 10865 10860 10854 10850 10846 10844 10842 10839 10832 10823 10816 10814 10810 10806 10804 10802 10799 10796 10793 10791 10788 10784 10779 10775 10771 10768 10762 10756 10752 10747 10742 10736 10730 10725 10719 10713 10707 10702 10698 10694 10689 10685 10680 10674 10669 10664 10659 10654 10650 10645 10640 10635 10630 10624 10620 10617 10614 10611 10608 10605 10602 10600 10599 10598 10598 10598 10599 10599 10600
10870 10869 10869 10872 10874 10873 10872 10874 10876 10875 10871 10867 10862 10855 10852 10855 10856 10855 10851 10846 10843 10842 10838 10830 10823 10817 10813 10809 10805 10802 10799 10796 10793 10789 10786 10784 10782 10777 10772 10766 10763 10759 10754 10748 10742 10737 10732 10727 10721 10715 10709 10704 10698 10693 10690 10686 10682 10676 10671 10666 10661 10655 10650 10645 10641 10636 10631 10626 10621 10616 10611 10608 10606 10603 10601 10598 10595 10593 10592 10591 10591 10591 10591 10592 10592
10862 10860 10860 10862 10865 10865 10866 10869 10870 10867 10863 10860 10856 10850 10845 10845 10846 10847 10846 10842 10837 10834 10829 10822 10816 10812 10808 10803 10800 10797 10794 10791 10786 10781 10778 10777 10775 10771 10765 10759 10754 10750 10745 10739 10733 10727 10722 10718 10712 10706 10701 10697 10690 10685 10682 10679 10674 10668 10662 10657 10652 10647 10641 10636 10631 10627 10623 10618 10614 10609 10604 10601 10598 10596 10594 10591 10588 10587 10586 10585 10585 10585 10585 10585 10586
10853 10853 10854 10855 10856 10857 10859 10861 10862 10862 10861 10857 10852 10846 10840 10840 10842 10842 10838 10833 10829 10826 10822 10816 10811 10806 10801 10797 10795 10793 10790 10786 10780 10774 10770 10768 10765 10761 10757 10751 10745 10740 10735 10729 10723 10717 10713 10708 10702 10697 10693 10689 10682 10677 10673 10670 10665 10659 10653 10648 10643 10637 10631 10625 10621 10617 10613 10610 10606 10601 10597 10594 10591 10589 10587 10585 10583 10582 10581 10580 10580 10579 10580 10580 10581
10841 10844 10848 10849 10848 10848 10849 10849 10851 10859 10863 10857 10849 10845 10842 10841 10843 10840 10831 10823 10819 10817 10814 10809 10804 10799 10795 10792 10790 10789 10786 10781 10775 10770 10766 10762 10758 10753 10749 10743 10736 10730 10724 10717 10711 10707 10703 10698 10691 10686 10682 10678 10673 10669 10666 10662 10657 10652 10646 10640 10634 10629 10622 10616 10611 10608 10604 10601 10598 10594 10590 10587 10584 10582 10581 10579 10578 10577 10577 10576 10576 10575 10576 10576 10577
10831 10834 10838 10839 10836 10836 10839 10839 10841 10850 10857 10852 10843 10839 10839 10837 10835 10831 10823 10816 10810 10807 10804 10801 10797 10793 10790 10787 10785 10783 10780 10775 10770 10766 10762 10757 10752 10746 10741 10735 10728 10720 10713 10707 10701 10697 10693 10687 10679 10674 10669 10665 10662 10659 10657 10653 10648 10643 10637 10631 10626 10620 10614 10607 10603 10599 10596 10593 10591 10587 10583 10580 10577 10576 10575 10573 10573 10573 10572 10572 10572 10572 10572 10572 10572
10826 10826 10827 10827 10825 10825 10828 10829 10830 10836 10843 10844 10839 10832 10829 10828 10825 10821 10816 10808 10801 10797 10793 10789 10786 10785 10782 10780 10778 10775 10772 10768 10763 10759 10755 10749 10744 10738 10732 10726 10719 10710 10703 10697 10692 10689 10684 10677 10669 10664 10659 10655 10651 10648 10645 10643 10638 10633 10628 10623 10617 10612 10606 10600 10595 10591 10588 10585 10583 10580 10577 10573 10571 10570 10569 10568 10568 10569 10568 10568 10569 10569 10569 10568 10568
10820 10817 10816 10816 10817 10818 10818 10818 10818 10821 10824 10828 10828 10823 10819 10818 10816 10812 10807 10800 10793 10788 10782 10776 10774 10774 10773 10770 10768 10765 10762 10758 10754 10750 10746 10741 10735 10729 10723 10716 10708 10699 10693 10689 10684 10681 10677 10670 10661 10656 10651 10646 10643 10638 10634 10631 10627 10622 10617 10612 10608 10603 10598 10592 10587 10583 10580 10578 10575 10572 10570 10567 10565 10564 10564 10564 10564 10565 10565 10565 10565 10566 10566 10565 10565
10812 10809 10807 10807 10808 10810 10810 10807 10806 10807 10807 10809 10811 10810 10808 10805 10802 10799 10796 10791 10786 10781 10775 10768 10765 10764 10762 10760 10757 10755 10752 10749 10745 10741 10737 10732 10726 10719 10712 10706 10698 10689 10683 10679 10675 10671 10667 10660 10653 10646 10642 10638 10634 10629 10625 10621 10617 10612 10607 10602 10598 10594 10589 10584 10579 10575 10573 10571 10569 10566 10563 10561 10559 10559 10559 10559 10561 10561 10562 10562 10563 10563 10563 10563 10562
10801 10801 10800 10799 10799 10800 10800 10797 10795 10794 10793 10793 10794 10793 10792 10789 10786 10784 10781 10778 10775 10770 10765 10761 10759 10757 10754 10751 10748 10745 10744 10741 10737 10732 10727 10721 10715 10708 10702 10697 10691 10683 10675 10669 10664 10660 10656 10651 10644 10638 10634 10631 10626 10620 10616 10612 10607 10602 10598 10594 10590 10586 10581 10576 10572 10568 10565 10563 10561 10559 10557 10555 10554 10554 10554 10555 10557 10558 10559 10560 10560 10560 10560 10560 10560
10789 10790 10792 10793 10792 10792 10790 10787 10785 10783 10780 10779 10778 10778 10776 10773 10769 10766 10764 10762 10759 10754 10750 10751 10751 10748 10744 10742 10738 10736 10734 10730 10726 10721 10715 10709 10703 10698 10693 10688 10682 10676 10669 10662 10657 10652 10647 10642 10636 10631 10627 10625 10619 10613 10608 10604 10599 10594 10590 10585 10582 10578 10573 10569 10565 10561 10558 10556 10554 10552 10551 10549 10549 10549 10549 10551 10553 10555 10556 10557 10558 10558 10558 10558 10558
10779 10778 10781 10784 10785 10783 10781 10778 10776 10773 10769 10767 10767 10766 10763 10759 10755 10752 10749 10746 10741 10736 10736 10739 10740 10737 10734 10732 10728 10725 10722 10719 10714 10709 10704 10699 10693 10688 10682 10676 10670 10664 10659 10653 10648 10644 10639 10634 10627 10622 10619 10616 10611 10605 10601 10596 10590 10585 10581 10577 10573 10569 10565 10561 10557 10554 10552 10550 10547 10546 10544 10543 10543 10544 10545 10547 10549 10552 10553 10554 10556 10556 10557 10556 10556
10770 10769 10770 10773 10773 10773 10772 10770 10767 10764 10761 10759 10758 10756 10752 10748 10744 10740 10737 10733 10727 10723 10725 10729 10730 10727 10725 10722 10717 10713 10709 10706 10702 10697 10692 10686 10680 10674 10667 10661 10656 10652 10647 10643 10639 10635 10631 10627 10621 10615 10611 10608 10603 10597 10592 10587 10581 10576 10572 10568 10564 10561 10557 10553 10550 10548 10545 10543 10541 10540 10539 10538 10538 10539 10540 10543 10546 10548 10550 10551 10553 10554 10555 10555 10554
10759 10758 10759 10761 10761 10761 10761 10760 10758 10756 10753 10751 10748 10745 10742 10738 10733 10729 10725 10721 10716 10713 10714 10717 10718 10716 10713 10709 10704 10700 10696 10690 10685 10680 10675 10669 10664 10659 10655 10651 10647 10642 10638 10634 10631 10626 10622 10619 10615 10609 10603 10599 10593 10587 10582 10576 10571 10566 10562 10558 10555 10553 10549 10546 10543 10541 10539 10537 10535 10534 10533 10533 10533 10534 10536 10539 10542 10544 10546 10548 10550 10552 10553 10553 10553
10747 10747 10748 10749 10751 10750 10749 10748 10748 10746 10744 10741 10739 10738 10734 10729 10722 10717 10713 10710 10707 10705 10704 10704 10705 10703 10700 10695 10691 10687 10683 10677 10671 10666 10662 10658 10654 10651 10648 10644 10639 10634 10630 10626 10622 10617 10612 10609 10604 10599 10594 10588 10583 10576 10570 10565 10560 10556 10552 10549 10546 10544 10542 10538 10536 10534 10533 10531 10529 10529 10528 10528 10529 10530 10532 10535 10538 10541 10543 10545 10547 10549 10550 10551 10551
10737 10737 10737 10738 10740 10740 10739 10738 10737 10735 10733 10731 10731 10731 10726 10717 10708 10704 10701 10699 10698 10697 10695 10694 10694 10693 10689 10685 10680 10676 10673 10669 10665 10660 10656 10652 10649 10645 10641 10636 10630 10625 10621 10617 10612 10606 10601 10596 10592 10587 10582 10577 10572 10565 10560 10554 10549 10546 10542 10539 10538 10536 10534 10532 10529 10527 10527 10526 10524 10524 10523 10524 10524 10526 10528 10531 10534 10537 10539 10542 10544 10546 10547 10549 10550
10728 10727 10726 10727 10728 10728 10728 10728 10726 10725 10723 10721 10720 10720 10714 10704 10696 10694 10692 10690 10688 10687 10686 10684 10685 10684 10682 10678 10674 10670 10667 10664 10660 10656 10651 10646 10641 10637 10632 10626 10620 10616 10612 10607 10601 10596 10590 10585 10580 10575 10570 10566 10560 10555 10549 10544 10540 10537 10533 10530 10529 10528 10527 10525 10523 10521 10521 10520 10519 10519 10519 10519 10520 10522 10524 10527 10530 10533 10536 10539 10541 10543 10544 10546 10548